Total_Precipitation_Accumulation
0.35 0.45 0.32 0.13 0.07 0.03 0.03 0.03 0.02 0.01 0.00 0.01 0.00 0.00 0.00 0.00 0.00 0.00 0.00 0.00 0.00 0.00 0.00 0.00 0.00 0.00 0.00 0.00 0.00 0.00 0.00 0.00 0.03 0.05 0.05 0.06 0.09 0.13 0.15 0.15 0.12 0.11 0.09 0.06
0.42 0.33 0.15 0.08 0.08 0.07 0.06 0.06 0.04 0.02 0.01 0.01 0.01 0.00 0.00 0.00 0.00 0.00 0.00 0.00 0.00 0.00 0.00 0.00 0.00 0.00 0.00 0.00 0.00 0.00 0.00 0.00 0.01 0.02 0.03 0.08 0.15 0.19 0.23 0.21 0.17 0.16 0.13 0.09
0.30 0.16 0.12 0.15 0.13 0.12 0.09 0.07 0.05 0.04 0.02 0.02 0.02 0.01 0.00 0.00 0.00 0.00 0.00 0.00 0.00 0.00 0.00 0.00 0.00 0.00 0.00 0.00 0.00 0.00 0.00 0.00 0.01 0.03 0.05 0.09 0.12 0.15 0.15 0.12 0.13 0.15 0.16 0.14
0.29 0.15 0.18 0.26 0.19 0.14 0.11 0.05 0.06 0.07 0.09 0.07 0.04 0.03 0.00 0.00 0.00 0.00 0.00 0.00 0.00 0.00 0.00 0.00 0.00 0.00 0.00 0.00 0.00 0.00 0.00 0.00 0.00 0.01 0.03 0.04 0.06 0.08 0.09 0.12 0.15 0.17 0.16 0.15
0.33 0.18 0.21 0.31 0.18 0.12 0.11 0.06 0.10 0.13 0.16 0.16 0.08 0.06 0.01 0.00 0.00 0.00 0.00 0.00 0.00 0.00 0.00 0.00 0.00 0.00 0.00 0.00 0.00 0.00 0.00 0.00 0.00 0.00 0.01 0.03 0.06 0.08 0.09 0.10 0.12 0.13 0.12 0.13
0.26 0.21 0.24 0.24 0.17 0.15 0.17 0.22 0.23 0.27 0.34 0.31 0.11 0.08 0.03 0.00 0.00 0.00 0.00 0.00 0.00 0.00 0.00 0.00 0.00 0.00 0.00 0.00 0.00 0.00 0.00 0.00 0.00 0.00 0.00 0.02 0.04 0.06 0.06 0.07 0.08 0.09 0.10 0.09
0.41 0.31 0.26 0.29 0.38 0.36 0.42 0.65 0.73 0.59 0.53 0.28 0.07 0.07 0.03 0.00 0.00 0.00 0.00 0.00 0.00 0.00 0.00 0.00 0.00 0.00 0.00 0.00 0.00 0.00 0.00 0.00 0.00 0.00 0.01 0.01 0.03 0.06 0.08 0.08 0.08 0.08 0.08 0.07
0.48 0.37 0.23 0.34 0.53 0.54 0.50 0.65 0.70 0.45 0.26 0.11 0.05 0.04 0.01 0.00 0.00 0.00 0.00 0.00 0.00 0.00 0.00 0.00 0.00 0.00 0.00 0.00 0.00 0.00 0.00 0.00 0.00 0.01 0.01 0.01 0.02 0.04 0.06 0.07 0.07 0.07 0.07 0.08
0.37 0.30 0.18 0.25 0.40 0.46 0.49 0.52 0.45 0.50 0.32 0.17 0.08 0.03 0.01 0.00 0.00 0.00 0.00 0.00 0.00 0.00 0.00 0.00 0.00 0.00 0.00 0.00 0.00 0.00 0.00 0.01 0.01 0.01 0.01 0.01 0.02 0.03 0.04 0.05 0.05 0.05 0.06 0.06
0.37 0.45 0.27 0.31 0.51 0.58 0.52 0.43 0.52 0.81 0.56 0.27 0.09 0.03 0.01 0.00 0.00 0.00 0.00 0.00 0.00 0.00 0.00 0.00 0.00 0.00 0.00 0.00 0.00 0.00 0.00 0.01 0.01 0.02 0.02 0.02 0.02 0.03 0.04 0.04 0.03 0.03 0.04 0.04
0.40 0.62 0.44 0.47 0.61 0.56 0.56 0.61 0.62 0.61 0.44 0.35 0.17 0.04 0.01 0.01 0.01 0.00 0.00 0.00 0.00 0.00 0.00 0.00 0.00 0.00 0.00 0.00 0.00 0.00 0.01 0.01 0.01 0.01 0.01 0.02 0.02 0.02 0.02 0.03 0.03 0.03 0.03 0.03
0.38 0.70 0.56 0.41 0.37 0.40 0.46 0.45 0.52 0.67 0.49 0.38 0.27 0.08 0.01 0.01 0.01 0.01 0.01 0.01 0.01 0.00 0.00 0.00 0.00 0.00 0.00 0.01 0.01 0.01 0.02 0.02 0.02 0.01 0.01 0.02 0.02 0.02 0.02 0.03 0.03 0.03 0.03 0.03
0.37 0.71 0.74 0.53 0.48 0.53 0.56 0.43 0.43 0.63 0.79 0.61 0.41 0.12 0.02 0.02 0.02 0.02 0.03 0.03 0.03 0.02 0.01 0.01 0.01 0.01 0.01 0.02 0.02 0.02 0.02 0.02 0.02 0.02 0.02 0.02 0.02 0.02 0.03 0.03 0.03 0.03 0.02 0.02
0.55 0.76 0.68 0.50 0.45 0.53 0.51 0.40 0.49 0.93 1.06 0.57 0.27 0.10 0.05 0.04 0.06 0.07 0.07 0.06 0.05 0.04 0.04 0.03 0.02 0.02 0.02 0.02 0.01 0.02 0.02 0.02 0.02 0.02 0.03 0.03 0.03 0.04 0.04 0.04 0.03 0.03 0.02 0.02
0.56 0.79 0.60 0.37 0.29 0.44 0.46 0.44 0.53 0.75 0.70 0.61 0.29 0.14 0.10 0.09 0.12 0.12 0.10 0.07 0.07 0.06 0.05 0.05 0.04 0.04 0.03 0.02 0.02 0.01 0.01 0.01 0.02 0.03 0.03 0.03 0.04 0.04 0.04 0.03 0.03 0.02 0.02 0.02
0.43 0.65 0.64 0.44 0.27 0.37 0.42 0.39 0.41 0.45 0.47 0.44 0.31 0.24 0.13 0.12 0.14 0.13 0.10 0.08 0.08 0.06 0.06 0.05 0.04 0.04 0.04 0.03 0.02 0.03 0.02 0.02 0.02 0.03 0.03 0.03 0.03 0.03 0.03 0.02 0.02 0.02 0.03 0.03
0.30 0.51 0.69 0.49 0.30 0.38 0.43 0.37 0.39 0.37 0.33 0.34 0.35 0.27 0.17 0.17 0.17 0.14 0.11 0.09 0.08 0.05 0.04 0.03 0.03 0.03 0.03 0.02 0.02 0.02 0.02 0.03 0.03 0.03 0.03 0.03 0.03 0.03 0.03 0.03 0.04 0.05 0.05 0.06
0.17 0.39 0.62 0.43 0.33 0.45 0.34 0.27 0.28 0.30 0.27 0.29 0.27 0.20 0.15 0.15 0.17 0.16 0.12 0.08 0.06 0.04 0.03 0.02 0.01 0.02 0.02 0.02 0.02 0.02 0.02 0.03 0.02 0.02 0.03 0.04 0.04 0.06 0.07 0.09 0.10 0.11 0.11 0.11
0.08 0.28 0.47 0.36 0.29 0.23 0.18 0.18 0.21 0.27 0.27 0.24 0.17 0.12 0.10 0.11 0.16 0.16 0.13 0.09 0.06 0.04 0.04 0.04 0.03 0.03 0.02 0.02 0.03 0.03 0.04 0.05 0.05 0.05 0.07 0.10 0.12 0.14 0.15 0.16 0.16 0.15 0.14 0.12
0.06 0.17 0.34 0.27 0.25 0.14 0.09 0.06 0.08 0.16 0.22 0.15 0.13 0.12 0.12 0.13 0.16 0.14 0.12 0.10 0.10 0.08 0.06 0.06 0.07 0.08 0.08 0.09 0.10 0.10 0.11 0.13 0.15 0.15 0.16 0.19 0.22 0.24 0.23 0.20 0.17 0.14 0.11 0.08
0.09 0.15 0.20 0.19 0.17 0.04 0.02 0.03 0.04 0.10 0.11 0.05 0.06 0.08 0.10 0.09 0.09 0.10 0.08 0.08 0.10 0.11 0.11 0.11 0.11 0.13 0.15 0.14 0.16 0.16 0.16 0.21 0.26 0.28 0.28 0.26 0.25 0.23 0.20 0.16 0.12 0.09 0.06 0.04
0.03 0.04 0.05 0.07 0.07 0.03 0.01 0.01 0.02 0.03 0.03 0.04 0.05 0.06 0.08 0.08 0.07 0.07 0.09 0.09 0.08 0.07 0.09 0.11 0.13 0.15 0.17 0.20 0.23 0.24 0.25 0.27 0.27 0.26 0.24 0.22 0.18 0.15 0.13 0.10 0.07 0.05 0.03 0.01
0.01 0.01 0.01 0.01 0.01 0.00 0.00 0.00 0.00 0.00 0.01 0.02 0.04 0.05 0.06 0.06 0.07 0.06 0.05 0.05 0.06 0.06 0.08 0.10 0.14 0.16 0.18 0.20 0.23 0.25 0.24 0.22 0.21 0.20 0.18 0.14 0.11 0.09 0.06 0.04 0.02 0.01 0.01 0.00
0.04 0.02 0.01 0.01 0.00 0.00 0.00 0.00 0.00 0.00 0.00 0.00 0.01 0.02 0.05 0.07 0.07 0.06 0.03 0.03 0.03 0.03 0.04 0.06 0.08 0.09 0.10 0.11 0.13 0.14 0.12 0.11 0.11 0.10 0.09 0.07 0.04 0.03 0.01 0.01 0.00 0.00 0.00 0.00
0.04 0.03 0.02 0.01 0.00 0.00 0.00 0.00 0.00 0.00 0.00 0.00 0.00 0.00 0.01 0.02 0.03 0.04 0.03 0.03 0.02 0.02 0.02 0.03 0.03 0.03 0.04 0.05 0.05 0.05 0.04 0.03 0.03 0.02 0.02 0.01 0.01 0.00 0.00 0.00 0.00 0.00 0.00 0.00
0.00 0.00 0.01 0.01 0.00 0.00 0.00 0.00 0.00 0.00 0.00 0.00 0.00 0.00 0.00 0.00 0.01 0.01 0.01 0.01 0.00 0.01 0.01 0.01 0.01 0.01 0.01 0.01 0.01 0.01 0.01 0.01 0.00 0.00 0.00 0.00 0.00 0.00 0.00 0.00 0.00 0.00 0.00 0.00